Year,Month,Day,Hour,Minute,Value (Times are PST for temperature in C)
2016,08,19,00,00,23.50
2016,08,19,00,01,23.60
2016,08,19,00,02,23.80
2016,08,19,00,03,24.00
2016,08,19,00,04,24.10
2016,08,19,00,05,24.30
2016,08,19,00,06,24.40
2016,08,19,00,07,24.50
2016,08,19,00,08,24.60
2016,08,19,00,09,24.70
2016,08,19,00,10,24.70
2016,08,19,00,11,24.70
2016,08,19,00,12,24.70
2016,08,19,00,13,24.70
2016,08,19,00,14,24.80
2016,08,19,00,15,24.80
2016,08,19,00,16,24.80
2016,08,19,00,17,24.80
2016,08,19,00,18,24.90
2016,08,19,00,19,25.00
2016,08,19,00,20,25.10
2016,08,19,00,21,25.30
2016,08,19,00,22,25.30
2016,08,19,00,23,25.40
2016,08,19,00,24,25.50
2016,08,19,00,25,25.60
2016,08,19,00,26,25.70
2016,08,19,00,27,25.70
2016,08,19,00,28,25.70
2016,08,19,00,29,25.70
2016,08,19,00,30,25.70
2016,08,19,00,31,25.70
2016,08,19,00,32,25.70
2016,08,19,00,33,25.70
2016,08,19,00,34,25.70
2016,08,19,00,35,25.70
2016,08,19,00,36,25.70
2016,08,19,00,37,25.70
2016,08,19,00,38,25.70
2016,08,19,00,39,25.70
2016,08,19,00,40,25.80
2016,08,19,00,41,25.90
2016,08,19,00,42,25.90
2016,08,19,00,43,26.00
2016,08,19,00,44,26.00
2016,08,19,00,45,26.10
2016,08,19,00,46,26.10
2016,08,19,00,47,26.10
2016,08,19,00,48,26.10
2016,08,19,00,49,26.20
2016,08,19,00,50,26.20
2016,08,19,00,51,26.20
2016,08,19,00,52,26.20
2016,08,19,00,53,26.30
2016,08,19,00,54,26.30
2016,08,19,00,55,26.30
2016,08,19,00,56,26.40
2016,08,19,00,57,26.40
2016,08,19,00,58,26.40
2016,08,19,00,59,26.40
2016,08,19,01,00,26.40
2016,08,19,01,01,26.40
2016,08,19,01,02,26.40
2016,08,19,01,03,26.40
2016,08,19,01,04,26.30
2016,08,19,01,05,26.30
2016,08,19,01,06,26.30
2016,08,19,01,07,26.20
2016,08,19,01,08,26.00
2016,08,19,01,09,25.90
2016,08,19,01,10,25.80
2016,08,19,01,11,25.50
2016,08,19,01,12,25.30
2016,08,19,01,13,25.10
2016,08,19,01,14,24.90
2016,08,19,01,15,24.80
2016,08,19,01,16,24.50
2016,08,19,01,17,24.40
2016,08,19,01,18,24.20
2016,08,19,01,19,24.10
2016,08,19,01,20,24.00
2016,08,19,01,21,23.80
2016,08,19,01,22,23.70
2016,08,19,01,23,23.70
2016,08,19,01,24,23.60
2016,08,19,01,25,23.50
2016,08,19,01,26,23.40
2016,08,19,01,27,23.30
2016,08,19,01,28,23.30
2016,08,19,01,29,23.20
2016,08,19,01,30,23.10
2016,08,19,01,31,23.00
2016,08,19,01,32,22.90
2016,08,19,01,33,22.90
2016,08,19,01,34,22.80
2016,08,19,01,35,22.80
2016,08,19,01,36,22.70
2016,08,19,01,37,22.60
2016,08,19,01,38,22.50
2016,08,19,01,39,22.40
2016,08,19,01,40,22.40
2016,08,19,01,41,22.40
2016,08,19,01,42,22.30
2016,08,19,01,43,22.30
2016,08,19,01,44,22.40
2016,08,19,01,45,22.40
2016,08,19,01,46,22.40
2016,08,19,01,47,22.40
2016,08,19,01,48,22.40
2016,08,19,01,49,22.40
2016,08,19,01,50,22.40
2016,08,19,01,51,22.40
2016,08,19,01,52,22.40
2016,08,19,01,53,22.40
2016,08,19,01,54,22.40
2016,08,19,01,55,22.50
2016,08,19,01,56,22.50
2016,08,19,01,57,22.50
2016,08,19,01,58,22.50
2016,08,19,01,59,22.40
2016,08,19,02,00,22.40
2016,08,19,02,01,22.30
2016,08,19,02,02,22.30
2016,08,19,02,03,22.30
2016,08,19,02,04,22.30
2016,08,19,02,05,22.30
2016,08,19,02,06,22.40
2016,08,19,02,07,22.40
2016,08,19,02,08,22.40
2016,08,19,02,09,22.40
2016,08,19,02,10,22.40
2016,08,19,02,11,22.40
2016,08,19,02,12,22.50
2016,08,19,02,13,22.50
2016,08,19,02,14,22.50
2016,08,19,02,15,22.60
2016,08,19,02,16,22.60
2016,08,19,02,17,22.60
2016,08,19,02,18,22.70
2016,08,19,02,19,22.60
2016,08,19,02,20,22.60
2016,08,19,02,21,22.60
2016,08,19,02,22,22.60
2016,08,19,02,23,22.60
2016,08,19,02,24,22.50
2016,08,19,02,25,22.50
2016,08,19,02,26,22.50
2016,08,19,02,27,22.60
2016,08,19,02,28,22.70
2016,08,19,02,29,22.70
2016,08,19,02,30,22.80
2016,08,19,02,31,22.90
2016,08,19,02,32,22.90
2016,08,19,02,33,22.90
2016,08,19,02,34,22.90
2016,08,19,02,35,22.90
2016,08,19,02,36,22.90
2016,08,19,02,37,22.90
2016,08,19,02,38,22.90
2016,08,19,02,39,22.80
2016,08,19,02,40,22.80
2016,08,19,02,41,22.80
2016,08,19,02,42,22.80
2016,08,19,02,43,22.80
2016,08,19,02,44,22.80
2016,08,19,02,45,22.70
2016,08,19,02,46,22.60
2016,08,19,02,47,22.40
2016,08,19,02,48,22.30
2016,08,19,02,49,22.10
2016,08,19,02,50,22.00
2016,08,19,02,51,21.90
2016,08,19,02,52,21.70
2016,08,19,02,53,21.60
2016,08,19,02,54,21.50
2016,08,19,02,55,21.40
2016,08,19,02,56,21.30
2016,08,19,02,57,21.30
2016,08,19,02,58,21.20
2016,08,19,02,59,21.20
2016,08,19,03,00,21.10
2016,08,19,03,01,21.00
2016,08,19,03,02,21.00
2016,08,19,03,03,20.90
2016,08,19,03,04,20.80
2016,08,19,03,05,20.70
2016,08,19,03,06,20.60
2016,08,19,03,07,20.50
2016,08,19,03,08,20.40
2016,08,19,03,09,20.30
2016,08,19,03,10,20.30
2016,08,19,03,11,20.20
2016,08,19,03,12,20.20
2016,08,19,03,13,20.10
2016,08,19,03,14,20.00
2016,08,19,03,15,19.90
2016,08,19,03,16,19.90
2016,08,19,03,17,19.90
2016,08,19,03,18,19.80
2016,08,19,03,19,19.80
2016,08,19,03,20,19.70
2016,08,19,03,21,19.70
2016,08,19,03,22,19.60
2016,08,19,03,23,19.60
2016,08,19,03,24,19.50
2016,08,19,03,25,19.50
2016,08,19,03,26,19.40
2016,08,19,03,27,19.40
2016,08,19,03,28,19.40
2016,08,19,03,29,19.30
2016,08,19,03,30,19.30
2016,08,19,03,31,19.30
2016,08,19,03,32,19.30
2016,08,19,03,33,19.30
2016,08,19,03,34,19.30
2016,08,19,03,35,19.30
2016,08,19,03,36,19.30
2016,08,19,03,37,19.20
2016,08,19,03,38,19.20
2016,08,19,03,39,19.20
2016,08,19,03,40,19.20
2016,08,19,03,41,19.20
2016,08,19,03,42,19.20
2016,08,19,03,43,19.20
2016,08,19,03,44,19.20
2016,08,19,03,45,19.10
2016,08,19,03,46,19.10
2016,08,19,03,47,19.20
2016,08,19,03,48,19.20
2016,08,19,03,49,19.30
2016,08,19,03,50,19.30
2016,08,19,03,51,19.30
2016,08,19,03,52,19.30
2016,08,19,03,53,19.30
2016,08,19,03,54,19.30
2016,08,19,03,55,19.30
2016,08,19,03,56,19.30
2016,08,19,03,57,19.30
2016,08,19,03,58,19.30
2016,08,19,03,59,19.30
2016,08,19,04,00,19.30
2016,08,19,04,01,19.30
2016,08,19,04,02,19.30
2016,08,19,04,03,19.30
2016,08,19,04,04,19.40
2016,08,19,04,05,19.30
2016,08,19,04,06,19.30
2016,08,19,04,07,19.30
2016,08,19,04,08,19.20
2016,08,19,04,09,19.10
2016,08,19,04,10,19.10
2016,08,19,04,11,19.10
2016,08,19,04,12,19.00
2016,08,19,04,13,18.90
2016,08,19,04,14,18.90
2016,08,19,04,15,18.90
2016,08,19,04,16,18.80
2016,08,19,04,17,18.90
2016,08,19,04,18,18.90
2016,08,19,04,19,18.90
2016,08,19,04,20,18.90
2016,08,19,04,21,18.90
2016,08,19,04,22,18.90
2016,08,19,04,23,18.90
2016,08,19,04,24,18.90
2016,08,19,04,25,18.90
2016,08,19,04,26,18.90
2016,08,19,04,27,18.90
2016,08,19,04,28,18.80
2016,08,19,04,29,18.80
2016,08,19,04,30,18.90
2016,08,19,04,31,18.90
2016,08,19,04,32,18.90
2016,08,19,04,33,19.00
2016,08,19,04,34,19.10
2016,08,19,04,35,19.10
2016,08,19,04,36,19.10
2016,08,19,04,37,19.10
2016,08,19,04,38,19.10
2016,08,19,04,39,19.10
2016,08,19,04,40,19.00
2016,08,19,04,41,18.90
2016,08,19,04,42,18.90
2016,08,19,04,43,18.90
2016,08,19,04,44,18.90
2016,08,19,04,45,18.80
2016,08,19,04,46,18.80
2016,08,19,04,47,18.70
2016,08,19,04,48,18.70
2016,08,19,04,49,18.70
2016,08,19,04,50,18.70
2016,08,19,04,51,18.70
2016,08,19,04,52,18.70
2016,08,19,04,53,18.70
2016,08,19,04,54,18.70
2016,08,19,04,55,18.70
2016,08,19,04,56,18.70
2016,08,19,04,57,18.70
2016,08,19,04,58,18.60
2016,08,19,04,59,18.60
2016,08,19,05,00,18.50
2016,08,19,05,01,18.40
2016,08,19,05,02,18.40
2016,08,19,05,03,18.30
2016,08,19,05,04,18.30
2016,08,19,05,05,18.20
2016,08,19,05,06,18.30
2016,08,19,05,07,18.20
2016,08,19,05,08,18.20
2016,08,19,05,09,18.20
2016,08,19,05,10,18.20
2016,08,19,05,11,18.20
2016,08,19,05,12,18.20
2016,08,19,05,13,18.20
2016,08,19,05,14,18.20
2016,08,19,05,15,18.20
2016,08,19,05,16,18.20
2016,08,19,05,17,18.20
2016,08,19,05,18,18.20
2016,08,19,05,19,18.20
2016,08,19,05,20,18.20
2016,08,19,05,21,18.20
2016,08,19,05,22,18.10
2016,08,19,05,23,18.10
2016,08,19,05,24,18.00
2016,08,19,05,25,17.90
2016,08,19,05,26,17.90
2016,08,19,05,27,17.90
2016,08,19,05,28,17.90
2016,08,19,05,29,17.80
2016,08,19,05,30,17.80
2016,08,19,05,31,17.70
2016,08,19,05,32,17.70
2016,08,19,05,33,17.70
2016,08,19,05,34,17.60
2016,08,19,05,35,17.60
2016,08,19,05,36,17.50
2016,08,19,05,37,17.50
2016,08,19,05,38,17.50
2016,08,19,05,39,17.40
2016,08,19,05,40,17.40
2016,08,19,05,41,17.40
2016,08,19,05,42,17.40
2016,08,19,05,43,17.40
2016,08,19,05,44,17.40
2016,08,19,05,45,17.40
2016,08,19,05,46,17.40
2016,08,19,05,47,17.40
2016,08,19,05,48,17.40
2016,08,19,05,49,17.40
2016,08,19,05,50,17.40
2016,08,19,05,51,17.40
2016,08,19,05,52,17.40
2016,08,19,05,53,17.30
2016,08,19,05,54,17.30
2016,08,19,05,55,17.30
2016,08,19,05,56,17.20
2016,08,19,05,57,17.20
2016,08,19,05,58,17.20
2016,08,19,05,59,17.10
2016,08,19,06,00,17.10
2016,08,19,06,01,17.10
2016,08,19,06,02,17.10
2016,08,19,06,03,17.20
2016,08,19,06,04,17.30
2016,08,19,06,05,17.30
2016,08,19,06,06,17.40
2016,08,19,06,07,17.50
2016,08,19,06,08,17.60
2016,08,19,06,09,17.70
2016,08,19,06,10,17.70
2016,08,19,06,11,17.80
2016,08,19,06,12,17.90
2016,08,19,06,13,17.90
2016,08,19,06,14,18.00
2016,08,19,06,15,18.10
2016,08,19,06,16,18.10
2016,08,19,06,17,18.20
2016,08,19,06,18,18.10
2016,08,19,06,19,18.10
2016,08,19,06,20,18.10
2016,08,19,06,21,18.00
2016,08,19,06,22,17.90
2016,08,19,06,23,17.90
2016,08,19,06,24,17.90
2016,08,19,06,25,17.90
2016,08,19,06,26,17.90
2016,08,19,06,27,17.90
2016,08,19,06,28,17.90
2016,08,19,06,29,17.90
2016,08,19,06,30,17.90
2016,08,19,06,31,17.90
2016,08,19,06,32,17.90
2016,08,19,06,33,17.90
2016,08,19,06,34,17.90
2016,08,19,06,35,17.80
2016,08,19,06,36,17.80
2016,08,19,06,37,17.80
2016,08,19,06,38,17.80
2016,08,19,06,39,17.70
2016,08,19,06,40,17.70
2016,08,19,06,41,17.70
2016,08,19,06,42,17.70
2016,08,19,06,43,17.70
2016,08,19,06,44,17.70
2016,08,19,06,45,17.70
2016,08,19,06,46,17.70
2016,08,19,06,47,17.70
2016,08,19,06,48,17.70
2016,08,19,06,49,17.80
2016,08,19,06,50,17.90
2016,08,19,06,51,17.90
2016,08,19,06,52,17.90
2016,08,19,06,53,17.90
2016,08,19,06,54,18.00
2016,08,19,06,55,18.10
2016,08,19,06,56,18.10
2016,08,19,06,57,18.10
2016,08,19,06,58,18.20
2016,08,19,06,59,18.20
2016,08,19,07,00,18.20
2016,08,19,07,01,18.20
2016,08,19,07,02,18.20
2016,08,19,07,03,18.20
2016,08,19,07,04,18.20
2016,08,19,07,05,18.20
2016,08,19,07,06,18.10
2016,08,19,07,07,18.10
2016,08,19,07,08,18.10
2016,08,19,07,09,18.10
2016,08,19,07,10,18.10
2016,08,19,07,11,18.10
2016,08,19,07,12,18.10
2016,08,19,07,13,18.10
2016,08,19,07,14,18.10
2016,08,19,07,15,18.10
2016,08,19,07,16,18.20
2016,08,19,07,17,18.20
2016,08,19,07,18,18.30
2016,08,19,07,19,18.30
2016,08,19,07,20,18.40
2016,08,19,07,21,18.50
2016,08,19,07,22,18.50
2016,08,19,07,23,18.60
2016,08,19,07,24,18.70
2016,08,19,07,25,18.80
2016,08,19,07,26,18.90
2016,08,19,07,27,19.00
2016,08,19,07,28,19.10
2016,08,19,07,29,19.20
2016,08,19,07,30,19.40
2016,08,19,07,31,19.50
2016,08,19,07,32,19.60
2016,08,19,07,33,19.70
2016,08,19,07,34,19.80
2016,08,19,07,35,19.80
2016,08,19,07,36,19.90
2016,08,19,07,37,19.90
2016,08,19,07,38,20.00
2016,08,19,07,39,20.10
2016,08,19,07,40,20.20
2016,08,19,07,41,20.40
2016,08,19,07,42,20.50
2016,08,19,07,43,20.50
2016,08,19,07,44,20.60
2016,08,19,07,45,20.70
2016,08,19,07,46,20.70
2016,08,19,07,47,20.80
2016,08,19,07,48,20.80
2016,08,19,07,49,20.80
2016,08,19,07,50,20.90
2016,08,19,07,51,20.90
2016,08,19,07,52,21.00
2016,08,19,07,53,21.00
2016,08,19,07,54,21.10
2016,08,19,07,55,21.10
2016,08,19,07,56,21.20
2016,08,19,07,57,21.30
2016,08,19,07,58,21.30
2016,08,19,07,59,21.40
2016,08,19,08,00,21.50
2016,08,19,08,01,21.60
2016,08,19,08,02,21.70
2016,08,19,08,03,21.70
2016,08,19,08,04,21.80
2016,08,19,08,05,21.80
2016,08,19,08,06,21.90
2016,08,19,08,07,21.90
2016,08,19,08,08,21.90
2016,08,19,08,09,22.00
2016,08,19,08,10,22.00
2016,08,19,08,11,22.10
2016,08,19,08,12,22.10
2016,08,19,08,13,22.20
2016,08,19,08,14,22.20
2016,08,19,08,15,22.30
2016,08,19,08,16,22.30
2016,08,19,08,17,22.40
2016,08,19,08,18,22.50
2016,08,19,08,19,22.50
2016,08,19,08,20,22.60
2016,08,19,08,21,22.70
2016,08,19,08,22,22.80
2016,08,19,08,23,22.90
2016,08,19,08,24,22.90
2016,08,19,08,25,23.00
2016,08,19,08,26,23.10
2016,08,19,08,27,23.30
2016,08,19,08,28,23.30
2016,08,19,08,29,23.40
2016,08,19,08,30,23.50
2016,08,19,08,31,23.70
2016,08,19,08,32,23.70
2016,08,19,08,33,23.80
2016,08,19,08,34,23.80
2016,08,19,08,35,23.90
2016,08,19,08,36,24.00
2016,08,19,08,37,24.10
2016,08,19,08,38,24.30
2016,08,19,08,39,24.50
2016,08,19,08,40,24.60
2016,08,19,08,41,24.70
2016,08,19,08,42,24.80
2016,08,19,08,43,24.90
2016,08,19,08,44,25.00
2016,08,19,08,45,25.20
2016,08,19,08,46,25.20
2016,08,19,08,47,25.30
2016,08,19,08,48,25.40
2016,08,19,08,49,25.40
2016,08,19,08,50,25.40
2016,08,19,08,51,25.40
2016,08,19,08,52,25.30
2016,08,19,08,53,25.30
2016,08,19,08,54,25.30
2016,08,19,08,55,25.30
2016,08,19,08,56,25.40
2016,08,19,08,57,25.40
2016,08,19,08,58,25.50
2016,08,19,08,59,25.60
2016,08,19,09,00,25.70
2016,08,19,09,01,25.70
2016,08,19,09,02,25.80
2016,08,19,09,03,25.90
2016,08,19,09,04,25.90
2016,08,19,09,05,25.90
2016,08,19,09,06,26.00
2016,08,19,09,07,26.00
2016,08,19,09,08,26.10
2016,08,19,09,09,26.10
2016,08,19,09,10,26.10
2016,08,19,09,11,26.10
2016,08,19,09,12,26.10
2016,08,19,09,13,26.20
2016,08,19,09,14,26.20
2016,08,19,09,15,26.30
2016,08,19,09,16,26.30
2016,08,19,09,17,26.40
2016,08,19,09,18,26.40
2016,08,19,09,19,26.40
2016,08,19,09,20,26.40
2016,08,19,09,21,26.40
2016,08,19,09,22,26.40
2016,08,19,09,23,26.40
2016,08,19,09,24,26.50
2016,08,19,09,25,26.60
2016,08,19,09,26,26.60
2016,08,19,09,27,26.40
2016,08,19,09,28,26.30
2016,08,19,09,29,26.20
2016,08,19,09,30,26.10
2016,08,19,09,31,26.00
2016,08,19,09,32,26.00
2016,08,19,09,33,26.00
2016,08,19,09,34,26.00
2016,08,19,09,35,26.00
2016,08,19,09,36,25.90
2016,08,19,09,37,25.90
2016,08,19,09,38,25.90
2016,08,19,09,39,25.80
2016,08,19,09,40,25.90
2016,08,19,09,41,25.90
2016,08,19,09,42,26.00
2016,08,19,09,43,26.00
2016,08,19,09,44,26.10
2016,08,19,09,45,26.10
2016,08,19,09,46,26.00
2016,08,19,09,47,26.00
2016,08,19,09,48,26.00
2016,08,19,09,49,26.00
2016,08,19,09,50,26.00
2016,08,19,09,51,26.00
2016,08,19,09,52,26.00
2016,08,19,09,53,26.10
2016,08,19,09,54,26.10
2016,08,19,09,55,26.20
2016,08,19,09,56,26.20
2016,08,19,09,57,26.20
2016,08,19,09,58,26.30
2016,08,19,09,59,26.30
2016,08,19,10,00,26.40
2016,08,19,10,01,26.40
2016,08,19,10,02,26.40
2016,08,19,10,03,26.40
2016,08,19,10,04,26.60
2016,08,19,10,05,26.60
2016,08,19,10,06,26.60
2016,08,19,10,07,26.60
2016,08,19,10,08,26.60
2016,08,19,10,09,26.60
2016,08,19,10,10,26.60
2016,08,19,10,11,26.70
2016,08,19,10,12,26.80
2016,08,19,10,13,26.80
2016,08,19,10,14,26.90
2016,08,19,10,15,27.00
2016,08,19,10,16,27.10
2016,08,19,10,17,27.10
2016,08,19,10,18,27.20
2016,08,19,10,19,27.20
2016,08,19,10,20,27.20
2016,08,19,10,21,27.30
2016,08,19,10,22,27.30
2016,08,19,10,23,27.30
2016,08,19,10,24,27.30
2016,08,19,10,25,27.30
2016,08,19,10,26,27.30
2016,08,19,10,27,27.40
2016,08,19,10,28,27.40
2016,08,19,10,29,27.40
2016,08,19,10,30,27.50
2016,08,19,10,31,27.60
2016,08,19,10,32,27.60
2016,08,19,10,33,27.60
2016,08,19,10,34,27.70
2016,08,19,10,35,27.70
2016,08,19,10,36,27.80
2016,08,19,10,37,27.90
2016,08,19,10,38,27.90
2016,08,19,10,39,27.90
2016,08,19,10,40,27.90
2016,08,19,10,41,27.90
2016,08,19,10,42,27.90
2016,08,19,10,43,27.90
2016,08,19,10,44,27.90
2016,08,19,10,45,27.90
2016,08,19,10,46,27.90
2016,08,19,10,47,27.90
2016,08,19,10,48,28.00
2016,08,19,10,49,28.00
2016,08,19,10,50,28.10
2016,08,19,10,51,28.10
2016,08,19,10,52,28.10
2016,08,19,10,53,28.10
2016,08,19,10,54,28.20
2016,08,19,10,55,28.20
2016,08,19,10,56,28.20
2016,08,19,10,57,28.30
2016,08,19,10,58,28.40
2016,08,19,10,59,28.40
2016,08,19,11,00,28.50
2016,08,19,11,01,28.60
2016,08,19,11,02,28.50
2016,08,19,11,03,28.40
2016,08,19,11,04,28.30
2016,08,19,11,05,28.10
2016,08,19,11,06,28.00
2016,08,19,11,07,28.00
2016,08,19,11,08,27.90
2016,08,19,11,09,27.90
2016,08,19,11,10,27.80
2016,08,19,11,11,27.70
2016,08,19,11,12,27.70
2016,08,19,11,13,27.60
2016,08,19,11,14,27.60
2016,08,19,11,15,27.60
2016,08,19,11,16,27.70
2016,08,19,11,17,27.80
2016,08,19,11,18,27.80
2016,08,19,11,19,28.00
2016,08,19,11,20,28.00
2016,08,19,11,21,28.10
2016,08,19,11,22,28.20
2016,08,19,11,23,28.30
2016,08,19,11,24,28.30
2016,08,19,11,25,28.40
2016,08,19,11,26,28.40
2016,08,19,11,27,28.40
2016,08,19,11,28,28.50
2016,08,19,11,29,28.60
2016,08,19,11,30,28.60
2016,08,19,11,31,28.70
2016,08,19,11,32,28.80
2016,08,19,11,33,28.80
2016,08,19,11,34,28.90
2016,08,19,11,35,28.90
2016,08,19,11,36,28.90
2016,08,19,11,37,29.00
2016,08,19,11,38,29.00
2016,08,19,11,39,28.90
2016,08,19,11,40,29.10
2016,08,19,11,41,29.10
2016,08,19,11,42,29.20
2016,08,19,11,43,29.30
2016,08,19,11,44,29.30
2016,08,19,11,45,29.40
2016,08,19,11,46,29.50
2016,08,19,11,47,29.60
2016,08,19,11,48,29.60
2016,08,19,11,49,29.70
2016,08,19,11,50,29.70
2016,08,19,11,51,29.70
2016,08,19,11,52,29.60
2016,08,19,11,53,29.60
2016,08,19,11,54,29.60
2016,08,19,11,55,29.50
2016,08,19,11,56,29.50
2016,08,19,11,57,29.50
2016,08,19,11,58,29.60
2016,08,19,11,59,29.60
2016,08,19,12,00,29.70
2016,08,19,12,01,29.70
2016,08,19,12,02,29.70
2016,08,19,12,03,29.60
2016,08,19,12,04,29.50
2016,08,19,12,05,29.50
2016,08,19,12,06,29.40
2016,08,19,12,07,29.40
2016,08,19,12,08,29.40
2016,08,19,12,09,29.30
2016,08,19,12,10,29.20
2016,08,19,12,11,29.20
2016,08,19,12,12,29.20
2016,08,19,12,13,29.30
2016,08,19,12,14,29.30
2016,08,19,12,15,29.30
2016,08,19,12,16,29.30
2016,08,19,12,17,29.30
2016,08,19,12,18,29.30
2016,08,19,12,19,29.30
2016,08,19,12,20,29.30
2016,08,19,12,21,29.30
2016,08,19,12,22,29.30
2016,08,19,12,23,29.30
2016,08,19,12,24,29.40
2016,08,19,12,25,29.60
2016,08,19,12,26,29.60
2016,08,19,12,27,29.70
2016,08,19,12,28,29.80
2016,08,19,12,29,29.80
2016,08,19,12,30,29.90
2016,08,19,12,31,29.90
2016,08,19,12,32,29.80
2016,08,19,12,33,29.80
2016,08,19,12,34,29.80
2016,08,19,12,35,29.80
2016,08,19,12,36,29.80
2016,08,19,12,37,29.80
2016,08,19,12,38,29.80
2016,08,19,12,39,29.80
2016,08,19,12,40,29.90
2016,08,19,12,41,29.90
2016,08,19,12,42,29.90
2016,08,19,12,43,29.90
2016,08,19,12,44,29.90
2016,08,19,12,45,30.00
2016,08,19,12,46,30.10
2016,08,19,12,47,30.10
2016,08,19,12,48,30.20
2016,08,19,12,49,30.20
2016,08,19,12,50,30.30
2016,08,19,12,51,30.40
2016,08,19,12,52,30.40
2016,08,19,12,53,30.40
2016,08,19,12,54,30.60
2016,08,19,12,55,30.60
2016,08,19,12,56,30.50
2016,08,19,12,57,30.40
2016,08,19,12,58,30.40
2016,08,19,12,59,30.40
2016,08,19,13,00,30.40
2016,08,19,13,01,30.40
2016,08,19,13,02,30.50
2016,08,19,13,03,30.60
2016,08,19,13,04,30.60
2016,08,19,13,05,30.60
2016,08,19,13,06,30.60
2016,08,19,13,07,30.60
2016,08,19,13,08,30.60
2016,08,19,13,09,30.60
2016,08,19,13,10,30.60
2016,08,19,13,11,30.60
2016,08,19,13,12,30.70
2016,08,19,13,13,30.70
2016,08,19,13,14,30.70
2016,08,19,13,15,30.70
2016,08,19,13,16,30.70
2016,08,19,13,17,30.70
2016,08,19,13,18,30.70
2016,08,19,13,19,30.70
2016,08,19,13,20,30.80
2016,08,19,13,21,30.80
2016,08,19,13,22,30.80
2016,08,19,13,23,30.70
2016,08,19,13,24,30.70
2016,08,19,13,25,30.70
2016,08,19,13,26,30.70
2016,08,19,13,27,30.70
2016,08,19,13,28,30.70
2016,08,19,13,29,30.70
2016,08,19,13,30,30.70
2016,08,19,13,31,30.70
2016,08,19,13,32,30.70
2016,08,19,13,33,30.80
2016,08,19,13,34,30.80
2016,08,19,13,35,30.90
2016,08,19,13,36,31.00
2016,08,19,13,37,31.10
2016,08,19,13,38,31.20
2016,08,19,13,39,31.20
2016,08,19,13,40,31.20
2016,08,19,13,41,31.20
2016,08,19,13,42,31.20
2016,08,19,13,43,31.30
2016,08,19,13,44,31.30
2016,08,19,13,45,31.30
2016,08,19,13,46,31.30
2016,08,19,13,47,31.20
2016,08,19,13,48,31.20
2016,08,19,13,49,31.20
2016,08,19,13,50,31.20
2016,08,19,13,51,31.20
2016,08,19,13,52,31.20
2016,08,19,13,53,31.20
2016,08,19,13,54,31.20
2016,08,19,13,55,31.20
2016,08,19,13,56,31.20
2016,08,19,13,57,31.10
2016,08,19,13,58,31.00
2016,08,19,13,59,30.90
2016,08,19,14,00,30.80
2016,08,19,14,01,30.70
2016,08,19,14,02,30.60
2016,08,19,14,03,30.50
2016,08,19,14,04,30.40
2016,08,19,14,05,30.40
2016,08,19,14,06,30.40
2016,08,19,14,07,30.40
2016,08,19,14,08,30.50
2016,08,19,14,09,30.60
2016,08,19,14,10,30.60
2016,08,19,14,11,30.60
2016,08,19,14,12,30.70
2016,08,19,14,13,30.70
2016,08,19,14,14,30.70
2016,08,19,14,15,30.70
2016,08,19,14,16,30.70
2016,08,19,14,17,30.70
2016,08,19,14,18,30.70
2016,08,19,14,19,30.80
2016,08,19,14,20,30.80
2016,08,19,14,21,30.90
2016,08,19,14,22,31.00
2016,08,19,14,23,31.10
2016,08,19,14,24,31.20
2016,08,19,14,25,31.20
2016,08,19,14,26,31.40
2016,08,19,14,27,31.40
2016,08,19,14,28,31.40
2016,08,19,14,29,31.50
2016,08,19,14,30,31.60
2016,08,19,14,31,31.60
2016,08,19,14,32,31.70
2016,08,19,14,33,31.80
2016,08,19,14,34,31.80
2016,08,19,14,35,31.80
2016,08,19,14,36,31.80
2016,08,19,14,37,31.90
2016,08,19,14,38,31.90
2016,08,19,14,39,31.90
2016,08,19,14,40,31.90
2016,08,19,14,41,31.90
2016,08,19,14,42,31.90
2016,08,19,14,43,31.80
2016,08,19,14,44,31.60
2016,08,19,14,45,31.60
2016,08,19,14,46,31.40
2016,08,19,14,47,31.40
2016,08,19,14,48,31.40
2016,08,19,14,49,31.30
2016,08,19,14,50,31.30
2016,08,19,14,51,31.30
2016,08,19,14,52,31.30
2016,08,19,14,53,31.30
2016,08,19,14,54,31.40
2016,08,19,14,55,31.40
2016,08,19,14,56,31.30
2016,08,19,14,57,31.20
2016,08,19,14,58,31.00
2016,08,19,14,59,30.70
2016,08,19,15,00,30.40
2016,08,19,15,01,30.20
2016,08,19,15,02,30.10
2016,08,19,15,03,30.10
2016,08,19,15,04,30.10
2016,08,19,15,05,30.10
2016,08,19,15,06,30.20
2016,08,19,15,07,30.20
2016,08,19,15,08,30.20
2016,08,19,15,09,30.30
2016,08,19,15,10,30.50
2016,08,19,15,11,30.60
2016,08,19,15,12,30.70
2016,08,19,15,13,30.80
2016,08,19,15,14,30.80
2016,08,19,15,15,30.90
2016,08,19,15,16,30.90
2016,08,19,15,17,30.90
2016,08,19,15,18,30.90
2016,08,19,15,19,30.90
2016,08,19,15,20,30.90
2016,08,19,15,21,30.90
2016,08,19,15,22,30.90
2016,08,19,15,23,30.90
2016,08,19,15,24,30.90
2016,08,19,15,25,31.00
2016,08,19,15,26,31.10
2016,08,19,15,27,31.10
2016,08,19,15,28,31.20
2016,08,19,15,29,31.20
2016,08,19,15,30,31.20
2016,08,19,15,31,31.30
2016,08,19,15,32,31.40
2016,08,19,15,33,31.50
2016,08,19,15,34,31.60
2016,08,19,15,35,31.60
2016,08,19,15,36,31.60
2016,08,19,15,37,31.50
2016,08,19,15,38,31.40
2016,08,19,15,39,31.40
2016,08,19,15,40,31.40
2016,08,19,15,41,31.40
2016,08,19,15,42,31.40
2016,08,19,15,43,31.40
2016,08,19,15,44,31.40
2016,08,19,15,45,31.40
2016,08,19,15,46,31.30
2016,08,19,15,47,31.20
2016,08,19,15,48,31.10
2016,08,19,15,49,31.10
2016,08,19,15,50,31.00
2016,08,19,15,51,30.90
2016,08,19,15,52,30.80
2016,08,19,15,53,30.70
2016,08,19,15,54,30.60
2016,08,19,15,55,30.40
2016,08,19,15,56,30.20
2016,08,19,15,57,30.00
2016,08,19,15,58,29.80
2016,08,19,15,59,29.60
2016,08,19,16,00,29.50
2016,08,19,16,01,29.30
2016,08,19,16,02,29.20
2016,08,19,16,03,29.20
2016,08,19,16,04,29.10
2016,08,19,16,05,29.00
2016,08,19,16,06,28.90
2016,08,19,16,07,28.90
2016,08,19,16,08,28.90
2016,08,19,16,09,28.80
2016,08,19,16,10,28.70
2016,08,19,16,11,28.60
2016,08,19,16,12,28.50
2016,08,19,16,13,28.30
2016,08,19,16,14,28.30
2016,08,19,16,15,28.20
2016,08,19,16,16,28.30
2016,08,19,16,17,28.30
2016,08,19,16,18,28.40
2016,08,19,16,19,28.50
2016,08,19,16,20,28.60
2016,08,19,16,21,28.60
2016,08,19,16,22,28.60
2016,08,19,16,23,28.50
2016,08,19,16,24,28.40
2016,08,19,16,25,28.30
2016,08,19,16,26,28.30
2016,08,19,16,27,28.30
2016,08,19,16,28,28.30
2016,08,19,16,29,28.40
2016,08,19,16,30,28.50
2016,08,19,16,31,28.60
2016,08,19,16,32,28.70
2016,08,19,16,33,28.80
2016,08,19,16,34,28.90
2016,08,19,16,35,29.00
2016,08,19,16,36,29.20
2016,08,19,16,37,29.30
2016,08,19,16,38,29.50
2016,08,19,16,39,29.70
2016,08,19,16,40,29.80
2016,08,19,16,41,30.00
2016,08,19,16,42,30.20
2016,08,19,16,43,30.30
2016,08,19,16,44,30.40
2016,08,19,16,45,30.60
2016,08,19,16,46,30.70
2016,08,19,16,47,30.80
2016,08,19,16,48,30.80
2016,08,19,16,49,30.70
2016,08,19,16,50,30.50
2016,08,19,16,51,30.30
2016,08,19,16,52,30.20
2016,08,19,16,53,30.10
2016,08,19,16,54,30.00
2016,08,19,16,55,29.90
2016,08,19,16,56,29.80
2016,08,19,16,57,29.80
2016,08,19,16,58,29.90
2016,08,19,16,59,29.90
2016,08,19,17,00,30.00
2016,08,19,17,01,30.10
2016,08,19,17,02,30.20
2016,08,19,17,03,30.30
2016,08,19,17,04,30.50
2016,08,19,17,05,30.60
2016,08,19,17,06,30.70
2016,08,19,17,07,30.80
2016,08,19,17,08,30.90
2016,08,19,17,09,30.90
2016,08,19,17,10,30.90
2016,08,19,17,11,30.90
2016,08,19,17,12,31.00
2016,08,19,17,13,31.00
2016,08,19,17,14,31.10
2016,08,19,17,15,31.20
2016,08,19,17,16,31.30
2016,08,19,17,17,31.30
2016,08,19,17,18,31.40
2016,08,19,17,19,31.40